User: anonymous   Login
Location: Beccas
(43.4309°N, 0.1528°E)
Time: 09:10:16
(UTC+00:00)
Language:

Okean 1 Rocket - Orbit

View from above orbital plane
View from above orbital plane
View from above satellite
View from above satellite

Ground track
Ground track

The orbit data is extracted from the following two-line orbital elements,

1 19275U 88056B   22024.90930363  .00000146  00000-0  14962-4 0  9991
2 19275  82.5152 195.9254 0021403  65.9358 294.4093 14.82838627791524
Epoch (UTC): 24 January 2022 21:49:23
Eccentricity: 0.0021403
inclination: 82.5152°
perigee height: 605 km
apogee height: 635 km
right ascension of ascending node: 195.9254°
argument of perigee: 65.9358°
revolutions per day: 14.82838627
mean anomaly at epoch: 294.4093°
orbit number at epoch: 79152

The dashed part of the orbit path shows where the satellite is in the earth's shadow,  

DLR